001  
ASUS43 KIWX 261300  
RWRIWX  
 
KIWX WEATHER ROUNDUP  
NATIONAL WEATHER SERVICE NORTHERN INDIANA  
800 AM EST TUE JAN 26 2021  
 
NOTE: "FAIR" INDICATES FEW OR NO CLOUDS BELOW 12,000 FEET WITH NO  
SIGNIFICANT WEATHER AND/OR S TO VISIBILITY
.  
 
* THESE STATIONS ARE NOT UNDER NWS QUALITY CONTROL. THEY ALSO MAY NOT  
REPORT WEATHER SUCH AS PRECIPITATION OR FOG.
 
 
INZ001>027-261400-  
NORTHERN INDIANA  
 
CITY SKY/WX TMP DP RH WIND PRES REMARKS
 
GARY* LGT SNOW 30 28 93 NE12 29.72R WCI 21  
MICHIGAN CITY* LGT SNOW 30 28 93 N6 29.72R WCI 24  
SOUTH BEND LGT SNOW 30 26 85 NE6 29.69S FOG WCI 24  
ELKHART* LGT SNOW 28 28 100 NE9 29.68F WCI 20  
GOSHEN LGT SNOW 29 27 92 NE8 29.67F VSB 1 WCI 21  
MONTICELLO* CLOUDY 32 31 96 CALM 29.66R FOG  
WARSAW* LGT SNOW 30 30 100 NE5 29.65F WCI 25  
AUBURN* CLOUDY 32 32 100 NE5 29.66S FOG WCI 27  
FORT WAYNE FRZ DRZL 33 30 88 NE7 29.65S FOG WCI 27  
PERU/GRISSOM CLOUDY 32 32 100 CALM 29.64R FOG  
 

 
INZ028>050-261400-  
CENTRAL INDIANA  
 
CITY SKY/WX TMP DP RH WIND PRES REMARKS
 
LAFAYETTE FOG 34 33 96 CALM 29.66S VSB 1/2  
KOKOMO* FOG N/A N/A N/A CALM 29.66R VSB 1/2  
MUNCIE* FOG 35 31 85 MISG 29.64R VSB 3/4  
PORTLAND* FOG 32 32 100 CALM 29.64R VSB 3/4  
INDIANAPOLIS CLOUDY 36 35 96 SW9 29.67R FOG  
 

 
MIZ043>046-050>051-056>058-064>065-071>073-077>080-261400-  
SOUTHWEST LOWER MICHIGAN  
 
CITY SKY/WX TMP DP RH WIND PRES REMARKS
 
BATTLE CREEK LGT SNOW 28 25 88 NE8 29.72F FOG WCI 20  
BENTON HARBOR CLOUDY 28 24 85 NE10G18 29.72S FOG WCI 19  
COLDWATER* CLOUDY 29 27 94 NE9 29.69S FOG WCI 20  
HILLSDALE* MIX PCPN 28 27 97 N6 29.67R WCI 22  
HOLLAND LGT SNOW 27 22 81 NE14G25 29.76R VSB 3/4 WCI 16  
GRAND RAPIDS SNOW 26 24 92 NE14G23 29.75S VSB 1/2 WCI 14  
KALAMAZOO LGT SNOW 29 25 85 NE9 29.71F VSB 1 WCI 20  
STURGIS* LGT SNOW 29 28 94 NE8 29.67F WCI 21  
THREE RIVERS* LGT SNOW 29 28 96 NE6 29.70S WCI 23  
 

 
OHZ001>008-015>018-024>025-261400-  
NORTHWEST OHIO  
 
CITY SKY/WX TMP DP RH WIND PRES REMARKS
 
DEFIANCE CLOUDY 33 30 88 NE8 29.67R FOG WCI 26  
FINDLAY CLOUDY 33 31 92 N8 29.63R FOG WCI 26  
TOLEDO EXPRESS MIX PCPN 32 30 92 NE8 29.67R FOG WCI 25  
VAN WERT* CLOUDY 32 32 100 CALM 29.65S FOG  
LIMA FOG 33 32 96 NW3 29.63R VSB 3/4  
 

 
AND FOR LAKE MICHIGAN COASTAL AND OPEN LAKE BUOY OBSERVATIONS  
 
STATION/POSITION TEMP WIND PRES VSBY WAVE
 
AIR SEA DIR/SP/G HT/PER  
(F) (DEG/KT/KT) (MB) (MI) (FT/S)  
CALUMET HARBOR 40/ 15/ 20 1006.0  
MICHIGAN CITY 29 40/ 3/ 3 N/A  
SAINT JOSEPH 27 30/ 5/ 10 1007.8  
 

 

 
 
 
CLICK HERE TO GO TO PREVIOUS BULLETINS.

The Nexlab IN Page
The Nexlab OH Page
The Nexlab MI Page Main Text Page